Location: Bayshore Village Mobile Home Park
(26.6945°N, 81.8642°W)
Time: 16:23:32
(UTC+00:00)

SJ 16-02 - Pass Details

Date: 17 June 2021
Orbit: 606 x 616 km, 75.0° (Epoch: 27 July)

Event Time Altitude Azimuth Distance (km) Brightness Sun altitude
Rises 06:22:28 0° 348° (NNW) 2,861 5.5 -38.2°
Reaches altitude 10° 06:24:42 10° 350° (N) 1,954 4.5 -38.1°
Enters shadow 06:24:49 11° 350° (N) 1,912 4.5 -38.1°
